| time (UTC) | temp C | wind direction | speed KPH | gust KPH | rain 1hr cm | rain 24hr cm | rain mn cm | humidity % | barometer mb |
| 20260510161552 | 28 | 223 | 3.2 | 14.5 | 0.00 | 0.00 | 0.00 | 36 | 1015.2 |
| 20260510160057 | 28 | 331 | 4.8 | 9.7 | 0.00 | 0.00 | 0.00 | 40 | 1015.4 |
| 20260510154551 | 27 | 5 | 1.6 | 9.7 | 0.00 | 0.00 | 0.00 | 40 | 1015.3 |
| 20260510153038 | 27 | 195 | 0.0 | 6.4 | 0.00 | 0.00 | 0.00 | 47 | 1015.3 |
| 20260510151534 | 26 | 292 | 1.6 | 8.0 | 0.00 | 0.00 | 0.00 | 47 | 1015.3 |
| 20260510150030 | 26 | 15 | 0.0 | 4.8 | 0.00 | 0.00 | 0.00 | 52 | 1015.3 |
| 20260510144527 | 25 | 260 | 1.6 | 6.4 | 0.00 | 0.00 | 0.00 | 54 | 1015.3 |
| 20260510143022 | 23 | 337 | 1.6 | 4.8 | 0.00 | 0.00 | 0.00 | 60 | 1015.4 |
| 20260510141517 | 22 | 310 | 0.0 | 8.0 | 0.00 | 0.00 | 0.00 | 62 | 1015.4 |
| 20260510140013 | 21 | 312 | 1.6 | 8.0 | 0.00 | 0.00 | 0.00 | 68 | 1015.5 |
| 20260510134509 | 18 | 10 | 1.6 | 4.8 | 0.00 | 0.00 | 0.00 | 78 | 1015.4 |
| 20260510133004 | 17 | 312 | 1.6 | 6.4 | 0.00 | 0.00 | 0.00 | 91 | 1015.3 |
| 20260510131501 | 16 | 242 | 0.0 | 4.8 | 0.00 | 0.00 | 0.00 | 94 | 1015.5 |
| 20260510130059 | 15 | 238 | 1.6 | 4.8 | 0.00 | 0.00 | 0.00 | 95 | 1015.6 |
| 20260510124610 | 15 | 217 | 0.0 | 3.2 | 0.00 | 0.00 | 0.00 | 95 | 1015.5 |
| 20260510123055 | 14 | 10 | 0.0 | 1.6 | 0.00 | 0.00 | 0.00 | 95 | 1015.5 |
| 20260510121552 | 13 | 10 | 0.0 | 1.6 | 0.00 | 0.00 | 0.00 | 95 | 1015.3 |
| 20260510120051 | 12 | 217 | 0.0 | 0.0 | 0.00 | 0.00 | 0.00 | 94 | 1015.0 |
| 20260510114548 | 11 | 217 | 0.0 | 0.0 | 0.00 | 0.00 | 0.00 | 94 | 1014.7 |
| 20260510113056 | 11 | 10 | 0.0 | 0.0 | 0.00 | 0.00 | 0.00 | 93 | 1014.7 |
| 20260510111602 | 11 | 217 | 0.0 | 0.0 | 0.00 | 0.00 | 0.00 | 93 | 1014.4 |
| 20260510110042 | 11 | 217 | 0.0 | 0.0 | 0.00 | 0.00 | 0.00 | 92 | 1014.1 |
| 20260510104551 | 11 | 217 | 0.0 | 0.0 | 0.00 | 0.00 | 0.00 | 92 | 1013.8 |
| 20260510103039 | 11 | 217 | 0.0 | 0.0 | 0.00 | 0.00 | 0.00 | 92 | 1013.7 |
| 20260510101538 | 12 | 217 | 0.0 | 0.0 | 0.00 | 0.00 | 0.00 | 92 | 1013.4 |
| 20260510100035 | 12 | 217 | 0.0 | 0.0 | 0.00 | 0.00 | 0.00 | 92 | 1013.3 |
| 20260510094531 | 12 | 217 | 0.0 | 0.0 | 0.00 | 0.00 | 0.00 | 92 | 1013.2 |
| 20260510093028 | 12 | 217 | 0.0 | 0.0 | 0.00 | 0.00 | 0.00 | 92 | 1013.2 |
| 20260510091546 | 12 | 217 | 0.0 | 1.6 | 0.00 | 0.00 | 0.00 | 92 | 1013.1 |
| 20260510090025 | 13 | 217 | 0.0 | 0.0 | 0.00 | 0.00 | 0.00 | 92 | 1012.8 |
| 20260510084525 | 13 | 217 | 0.0 | 0.0 | 0.00 | 0.00 | 0.00 | 92 | 1012.5 |
| 20260510083021 | 13 | 217 | 0.0 | 0.0 | 0.00 | 0.00 | 0.00 | 92 | 1012.4 |
| 20260510081532 | 13 | 216 | 0.0 | 0.0 | 0.00 | 0.00 | 0.00 | 92 | 1012.2 |
| 20260510080020 | 13 | 216 | 0.0 | 0.0 | 0.00 | 0.00 | 0.00 | 92 | 1012.0 |
| 20260510074517 | 14 | 216 | 0.0 | 1.6 | 0.00 | 0.00 | 0.00 | 92 | 1011.9 |
| 20260510073024 | 14 | 216 | 0.0 | 4.8 | 0.00 | 0.00 | 0.00 | 92 | 1011.9 |
| 20260510071517 | 14 | 173 | 4.8 | 9.7 | 0.00 | 0.00 | 0.00 | 92 | 1011.9 |
| 20260510070021 | 14 | 220 | 0.0 | 0.0 | 0.00 | 0.00 | 0.00 | 92 | 1011.5 |
| 20260510064539 | 14 | 220 | 0.0 | 0.0 | 0.00 | 0.00 | 0.00 | 91 | 1011.8 |
| 20260510063017 | 14 | 220 | 0.0 | 0.0 | 0.00 | 0.00 | 0.00 | 91 | 1011.8 |
| 20260510061512 | 14 | 220 | 0.0 | 0.0 | 0.00 | 0.00 | 0.00 | 91 | 1011.9 |
| 20260510060023 | 15 | 220 | 0.0 | 0.0 | 0.00 | 0.00 | 0.00 | 90 | 1012.0 |
| 20260510054505 | 15 | 220 | 0.0 | 0.0 | 0.00 | 0.00 | 0.00 | 90 | 1012.3 |
| 20260510053002 | 15 | 220 | 0.0 | 0.0 | 0.00 | 0.00 | 0.00 | 90 | 1012.3 |
| 20260510051610 | 15 | 220 | 0.0 | 0.0 | 0.00 | 0.00 | 0.00 | 90 | 1012.5 |
| 20260510050117 | 15 | 220 | 0.0 | 0.0 | 0.00 | 0.00 | 0.00 | 89 | 1012.3 |
| 20260510044609 | 16 | 220 | 0.0 | 0.0 | 0.00 | 0.00 | 0.00 | 89 | 1012.3 |
| 20260510043056 | 16 | 220 | 0.0 | 0.0 | 0.00 | 0.00 | 0.00 | 89 | 1012.2 |
| 20260510041606 | 16 | 220 | 0.0 | 0.0 | 0.00 | 0.00 | 0.00 | 88 | 1012.3 |
| 20260510040053 | 16 | 220 | 0.0 | 0.0 | 0.00 | 0.00 | 0.00 | 88 | 1012.3 |
| 20260510034558 | 16 | 220 | 0.0 | 1.6 | 0.00 | 0.00 | 0.00 | 87 | 1012.2 |
| 20260510033051 | 16 | 220 | 0.0 | 1.6 | 0.00 | 0.00 | 0.00 | 86 | 1012.2 |
| 20260510031557 | 17 | 220 | 0.0 | 0.0 | 0.00 | 0.00 | 0.00 | 85 | 1012.1 |
| 20260510030057 | 17 | 220 | 0.0 | 1.6 | 0.00 | 0.00 | 0.00 | 85 | 1012.0 |
| 20260510024552 | 17 | 220 | 0.0 | 1.6 | 0.00 | 0.00 | 0.00 | 83 | 1011.9 |
| 20260510023048 | 18 | 219 | 0.0 | 3.2 | 0.00 | 0.00 | 0.00 | 82 | 1011.8 |
| 20260510021548 | 18 | 219 | 0.0 | 3.2 | 0.00 | 0.00 | 0.00 | 81 | 1011.7 |
| 20260510020048 | 18 | 215 | 0.0 | 6.4 | 0.00 | 0.00 | 0.00 | 80 | 1011.5 |
| 20260510014546 | 19 | 199 | 0.0 | 4.8 | 0.00 | 0.00 | 0.00 | 78 | 1011.1 |
| 20260510013052 | 19 | 180 | 3.2 | 8.0 | 0.00 | 0.00 | 0.00 | 77 | 1010.9 |
| 20260510011546 | 20 | 202 | 1.6 | 4.8 | 0.00 | 0.00 | 0.00 | 75 | 1010.6 |
| 20260510010045 | 20 | 202 | 1.6 | 9.7 | 0.00 | 0.00 | 0.00 | 74 | 1010.4 |
| 20260510004545 | 21 | 225 | 0.0 | 6.4 | 0.00 | 0.00 | 0.00 | 72 | 1010.2 |
| 20260510003053 | 21 | 247 | 0.0 | 4.8 | 0.00 | 0.00 | 0.00 | 70 | 1010.2 |
| 20260510001542 | 21 | 200 | 0.0 | 3.2 | 0.00 | 0.00 | 0.00 | 69 | 1010.2 |
| 20260510000042 | 22 | 208 | 0.0 | 9.7 | 0.00 | 0.00 | 0.00 | 68 | 1009.9 |
| 20260509234557 | 22 | 252 | 6.4 | 12.9 | 0.00 | 0.00 | 0.00 | 66 | 1009.6 |
| 20260509233046 | 22 | 211 | 6.4 | 17.7 | 0.00 | 0.00 | 0.00 | 64 | 1009.7 |
| 20260509231600 | 23 | 238 | 1.6 | 12.9 | 0.00 | 0.00 | 0.00 | 63 | 1009.3 |
| 20260509230040 | 23 | 166 | 3.2 | 24.1 | 0.00 | 0.00 | 0.00 | 62 | 1009.2 |
| 20260509224541 | 23 | 235 | 3.2 | 12.9 | 0.00 | 0.00 | 0.00 | 63 | 1009.2 |
| 20260509223039 | 23 | 194 | 1.6 | 9.7 | 0.00 | 0.00 | 0.00 | 63 | 1009.1 |
| 20260509221540 | 23 | 223 | 3.2 | 14.5 | 0.00 | 0.00 | 0.00 | 61 | 1009.3 |
| 20260509220039 | 24 | 171 | 4.8 | 19.3 | 0.00 | 0.00 | 0.00 | 60 | 1009.1 |
| 20260509214537 | 24 | 228 | 3.2 | 20.9 | 0.00 | 0.00 | 0.00 | 58 | 1009.1 |
| 20260509213036 | 25 | 194 | 3.2 | 12.9 | 0.00 | 0.00 | 0.00 | 58 | 1009.0 |
| 20260509211535 | 25 | 142 | 3.2 | 19.3 | 0.00 | 0.00 | 0.00 | 57 | 1008.7 |
| 20260509210038 | 25 | 260 | 6.4 | 17.7 | 0.00 | 0.00 | 0.00 | 56 | 1008.9 |
| 20260509204535 | 26 | 249 | 3.2 | 12.9 | 0.00 | 0.00 | 0.00 | 56 | 1008.8 |
| 20260509203036 | 25 | 219 | 1.6 | 12.9 | 0.00 | 0.00 | 0.00 | 58 | 1009.0 |
| 20260509201526 | 24 | 331 | 4.8 | 17.7 | 0.00 | 0.00 | 0.00 | 61 | 1009.0 |
| 20260509200025 | 23 | 108 | 8.0 | 12.9 | 0.00 | 0.00 | 0.00 | 62 | 1009.2 |
| 20260509194526 | 23 | 244 | 4.8 | 17.7 | 0.00 | 0.00 | 0.00 | 61 | 1009.4 |
| 20260509193022 | 23 | 119 | 3.2 | 11.3 | 0.00 | 0.00 | 0.00 | 62 | 1009.3 |
| 20260509191523 | 23 | 121 | 3.2 | 14.5 | 0.00 | 0.00 | 0.00 | 61 | 1009.6 |
| 20260509190021 | 23 | 152 | 4.8 | 12.9 | 0.00 | 0.00 | 0.00 | 60 | 1009.7 |
| 20260509184529 | 23 | 180 | 8.0 | 19.3 | 0.00 | 0.00 | 0.00 | 60 | 1009.8 |
| 20260509183028 | 24 | 225 | 9.7 | 17.7 | 0.00 | 0.00 | 0.00 | 55 | 1009.9 |
| 20260509181519 | 23 | 184 | 9.7 | 16.1 | 0.00 | 0.00 | 0.00 | 57 | 1010.4 |
| 20260509180019 | 24 | 294 | 8.0 | 20.9 | 0.00 | 0.00 | 0.00 | 55 | 1010.5 |
| 20260509174511 | 23 | 184 | 9.7 | 22.5 | 0.00 | 0.00 | 0.00 | 59 | 1010.5 |
| 20260509173016 | 23 | 277 | 4.8 | 14.5 | 0.00 | 0.00 | 0.00 | 59 | 1010.6 |
| 20260509171520 | 23 | 190 | 4.8 | 19.3 | 0.00 | 0.00 | 0.00 | 59 | 1010.8 |
| 20260509170008 | 22 | 159 | 8.0 | 29.0 | 0.00 | 0.00 | 0.00 | 59 | 1010.9 |
| 20260509164505 | 22 | 254 | 6.4 | 19.3 | 0.00 | 0.00 | 0.00 | 61 | 1011.3 |
| 20260509163002 | 22 | 129 | 9.7 | 20.9 | 0.00 | 0.00 | 0.00 | 61 | 1011.7 |